| time (UTC) | temp C | wind direction | speed KPH | gust KPH | rain 1hr cm | rain 24hr cm | rain mn cm | humidity % | barometer mb |
| 20260505140542 | 12 | 175 | 17.7 | 37.0 | 0.00 | 0.00 | 0.00 | 84 | 1013.0 |
| 20260505124557 | 11 | 170 | 14.5 | 32.2 | 0.00 | 0.00 | 0.00 | 87 | 1012.9 |
| 20260505124047 | 11 | 139 | 14.5 | 37.0 | 0.00 | 0.00 | 0.00 | 87 | 1012.9 |
| 20260505123542 | 10 | 114 | 19.3 | 40.2 | 0.00 | 0.00 | 0.00 | 87 | 1012.6 |
| 20260505123058 | 10 | 164 | 19.3 | 40.2 | 0.00 | 0.00 | 0.00 | 87 | 1012.6 |
| 20260505122542 | 10 | 172 | 20.9 | 37.0 | 0.00 | 0.00 | 0.00 | 87 | 1012.5 |
| 20260505122046 | 10 | 181 | 16.1 | 32.2 | 0.00 | 0.00 | 0.00 | 87 | 1012.5 |
| 20260505121622 | 10 | 144 | 16.1 | 32.2 | 0.00 | 0.00 | 0.00 | 88 | 1012.5 |
| 20260505121044 | 10 | 169 | 16.1 | 33.8 | 0.00 | 0.00 | 0.00 | 88 | 1012.5 |
| 20260505120544 | 10 | 141 | 16.1 | 33.8 | 0.00 | 0.00 | 0.00 | 88 | 1012.5 |
| 20260505120057 | 10 | 165 | 16.1 | 30.6 | 0.00 | 0.00 | 0.00 | 89 | 1012.7 |
| 20260505115541 | 10 | 162 | 12.9 | 33.8 | 0.00 | 0.00 | 0.00 | 89 | 1012.7 |
| 20260505115042 | 10 | 163 | 16.1 | 33.8 | 0.00 | 0.00 | 0.00 | 89 | 1012.6 |
| 20260505114554 | 9 | 154 | 16.1 | 33.8 | 0.00 | 0.00 | 0.00 | 90 | 1012.6 |
| 20260505114044 | 9 | 167 | 16.1 | 33.8 | 0.00 | 0.00 | 0.00 | 90 | 1012.7 |
| 20260505113544 | 9 | 164 | 14.5 | 30.6 | 0.00 | 0.00 | 0.00 | 90 | 1012.6 |
| 20260505113057 | 9 | 173 | 14.5 | 30.6 | 0.00 | 0.00 | 0.00 | 90 | 1012.6 |
| 20260505112544 | 8 | 147 | 14.5 | 32.2 | 0.00 | 0.00 | 0.00 | 90 | 1012.6 |
| 20260505112043 | 8 | 159 | 14.5 | 32.2 | 0.00 | 0.00 | 0.00 | 91 | 1012.5 |
| 20260505111557 | 8 | 164 | 14.5 | 35.4 | 0.00 | 0.00 | 0.00 | 91 | 1012.5 |
| 20260505111046 | 8 | 161 | 14.5 | 37.0 | 0.00 | 0.00 | 0.00 | 91 | 1012.3 |
| 20260505110542 | 8 | 166 | 14.5 | 40.2 | 0.00 | 0.00 | 0.00 | 91 | 1012.3 |
| 20260505102041 | 7 | 167 | 17.7 | 35.4 | 0.00 | 0.00 | 0.00 | 93 | 1011.6 |
| 20260505101550 | 7 | 186 | 14.5 | 32.2 | 0.00 | 0.00 | 0.00 | 93 | 1011.5 |
| 20260505101042 | 7 | 197 | 19.3 | 33.8 | 0.00 | 0.00 | 0.00 | 94 | 1011.5 |
| 20260505100547 | 7 | 145 | 16.1 | 33.8 | 0.00 | 0.00 | 0.00 | 94 | 1011.5 |
| 20260505100123 | 7 | 190 | 16.1 | 29.0 | 0.00 | 0.00 | 0.00 | 94 | 1011.5 |
| 20260505095549 | 7 | 157 | 12.9 | 25.7 | 0.00 | 0.00 | 0.00 | 94 | 1011.5 |
| 20260505095046 | 7 | 192 | 12.9 | 27.4 | 0.00 | 0.00 | 0.00 | 94 | 1011.5 |
| 20260505094550 | 7 | 186 | 14.5 | 27.4 | 0.00 | 0.00 | 0.00 | 94 | 1011.3 |
| 20260505094042 | 6 | 169 | 14.5 | 24.1 | 0.00 | 0.00 | 0.00 | 94 | 1011.3 |
| 20260505093543 | 6 | 159 | 12.9 | 25.7 | 0.00 | 0.00 | 0.00 | 94 | 1011.4 |
| 20260505093052 | 6 | 160 | 12.9 | 29.0 | 0.00 | 0.00 | 0.00 | 94 | 1011.3 |
| 20260505092545 | 6 | 180 | 14.5 | 29.0 | 0.00 | 0.00 | 0.00 | 94 | 1011.3 |
| 20260505092042 | 6 | 169 | 12.9 | 25.7 | 0.00 | 0.00 | 0.00 | 94 | 1011.3 |
| 20260505091612 | 6 | 169 | 11.3 | 25.7 | 0.00 | 0.00 | 0.00 | 94 | 1011.3 |
| 20260505091042 | 6 | 182 | 11.3 | 25.7 | 0.00 | 0.00 | 0.00 | 94 | 1011.3 |
| 20260505090542 | 6 | 157 | 11.3 | 25.7 | 0.00 | 0.00 | 0.00 | 94 | 1011.3 |
| 20260505090059 | 6 | 174 | 12.9 | 22.5 | 0.00 | 0.00 | 0.00 | 94 | 1011.4 |
| 20260505085545 | 6 | 172 | 9.7 | 17.7 | 0.00 | 0.00 | 0.00 | 93 | 1011.3 |
| 20260505085041 | 6 | 159 | 9.7 | 20.9 | 0.00 | 0.00 | 0.00 | 93 | 1011.3 |
| 20260505084549 | 6 | 177 | 11.3 | 20.9 | 0.00 | 0.00 | 0.00 | 93 | 1011.3 |
| 20260505084046 | 6 | 169 | 8.0 | 20.9 | 0.00 | 0.00 | 0.00 | 93 | 1011.4 |
| 20260505083544 | 6 | 164 | 8.0 | 25.7 | 0.00 | 0.00 | 0.00 | 93 | 1011.4 |
| 20260505083052 | 6 | 173 | 8.0 | 25.7 | 0.00 | 0.00 | 0.00 | 93 | 1011.4 |
| 20260505082543 | 6 | 191 | 11.3 | 24.1 | 0.00 | 0.00 | 0.00 | 93 | 1011.4 |
| 20260505082042 | 6 | 153 | 9.7 | 24.1 | 0.00 | 0.00 | 0.00 | 93 | 1011.4 |
| 20260505081553 | 6 | 163 | 9.7 | 24.1 | 0.00 | 0.00 | 0.00 | 93 | 1011.3 |
| 20260505081049 | 6 | 157 | 11.3 | 22.5 | 0.00 | 0.00 | 0.00 | 93 | 1011.4 |
| 20260505080544 | 6 | 187 | 12.9 | 22.5 | 0.00 | 0.00 | 0.00 | 93 | 1011.4 |
| 20260505080053 | 6 | 155 | 9.7 | 19.3 | 0.00 | 0.00 | 0.00 | 93 | 1011.4 |
| 20260505075543 | 6 | 137 | 11.3 | 22.5 | 0.00 | 0.00 | 0.00 | 93 | 1011.4 |
| 20260505075043 | 6 | 171 | 9.7 | 24.1 | 0.00 | 0.00 | 0.00 | 92 | 1011.3 |
| 20260505074552 | 6 | 167 | 8.0 | 24.1 | 0.00 | 0.00 | 0.00 | 92 | 1011.3 |
| 20260505074045 | 6 | 185 | 9.7 | 25.7 | 0.00 | 0.00 | 0.00 | 92 | 1011.4 |
| 20260505073545 | 6 | 167 | 14.5 | 25.7 | 0.00 | 0.00 | 0.00 | 93 | 1011.4 |
| 20260505073059 | 6 | 157 | 12.9 | 25.7 | 0.00 | 0.00 | 0.00 | 92 | 1011.4 |
| 20260505072547 | 6 | 157 | 11.3 | 22.5 | 0.00 | 0.00 | 0.00 | 92 | 1011.3 |
| 20260505072045 | 6 | 189 | 12.9 | 22.5 | 0.00 | 0.00 | 0.00 | 92 | 1011.4 |
| 20260505071552 | 6 | 169 | 9.7 | 25.7 | 0.00 | 0.00 | 0.00 | 92 | 1011.2 |
| 20260505071047 | 6 | 166 | 12.9 | 25.7 | 0.00 | 0.00 | 0.00 | 92 | 1011.2 |
| 20260505070545 | 6 | 164 | 12.9 | 25.7 | 0.00 | 0.00 | 0.00 | 91 | 1011.0 |
| 20260505070059 | 6 | 186 | 12.9 | 25.7 | 0.00 | 0.00 | 0.00 | 91 | 1010.9 |
| 20260505065541 | 7 | 185 | 14.5 | 25.7 | 0.00 | 0.00 | 0.00 | 91 | 1010.8 |
| 20260505065044 | 7 | 186 | 12.9 | 30.6 | 0.00 | 0.00 | 0.00 | 91 | 1010.6 |
| 20260505064607 | 7 | 194 | 16.1 | 30.6 | 0.00 | 0.00 | 0.00 | 92 | 1010.5 |
| 20260505064043 | 7 | 191 | 16.1 | 27.4 | 0.00 | 0.00 | 0.00 | 92 | 1010.3 |
| 20260505063544 | 7 | 175 | 12.9 | 24.1 | 0.00 | 0.00 | 0.00 | 92 | 1010.4 |
| 20260505063057 | 7 | 175 | 12.9 | 24.1 | 0.00 | 0.00 | 0.00 | 91 | 1010.4 |
| 20260505062544 | 7 | 179 | 12.9 | 25.7 | 0.00 | 0.00 | 0.00 | 91 | 1010.4 |
| 20260505062041 | 7 | 186 | 14.5 | 25.7 | 0.00 | 0.00 | 0.00 | 91 | 1010.5 |
| 20260505061601 | 7 | 173 | 11.3 | 22.5 | 0.00 | 0.00 | 0.00 | 91 | 1010.4 |
| 20260505061043 | 7 | 183 | 11.3 | 20.9 | 0.00 | 0.00 | 0.00 | 91 | 1010.4 |
| 20260505060548 | 7 | 182 | 11.3 | 20.9 | 0.00 | 0.00 | 0.00 | 91 | 1010.4 |
| 20260505060059 | 7 | 200 | 11.3 | 20.9 | 0.00 | 0.00 | 0.00 | 91 | 1010.4 |
| 20260505055545 | 7 | 171 | 9.7 | 24.1 | 0.00 | 0.00 | 0.00 | 90 | 1010.4 |
| 20260505055044 | 7 | 186 | 14.5 | 24.1 | 0.00 | 0.00 | 0.00 | 91 | 1010.4 |
| 20260505054623 | 7 | 191 | 9.7 | 19.3 | 0.00 | 0.00 | 0.00 | 90 | 1010.3 |
| 20260505054045 | 7 | 167 | 9.7 | 20.9 | 0.00 | 0.00 | 0.00 | 90 | 1010.5 |
| 20260505053544 | 7 | 171 | 11.3 | 20.9 | 0.00 | 0.00 | 0.00 | 90 | 1010.4 |
| 20260505053056 | 7 | 159 | 9.7 | 22.5 | 0.00 | 0.00 | 0.00 | 90 | 1010.4 |
| 20260505052546 | 7 | 163 | 9.7 | 22.5 | 0.00 | 0.00 | 0.00 | 90 | 1010.6 |
| 20260505052043 | 7 | 180 | 9.7 | 20.9 | 0.00 | 0.00 | 0.00 | 90 | 1010.5 |
| 20260505051551 | 7 | 147 | 11.3 | 19.3 | 0.00 | 0.00 | 0.00 | 90 | 1010.4 |
| 20260505051045 | 7 | 178 | 9.7 | 16.1 | 0.00 | 0.00 | 0.00 | 90 | 1010.5 |
| 20260505050543 | 7 | 151 | 6.4 | 17.7 | 0.00 | 0.00 | 0.00 | 90 | 1010.6 |
| 20260505041601 | 7 | 159 | 12.9 | 22.5 | 0.00 | 0.00 | 0.00 | 89 | 1010.7 |
| 20260505041045 | 7 | 181 | 12.9 | 22.5 | 0.00 | 0.00 | 0.00 | 89 | 1010.8 |
| 20260505040546 | 7 | 173 | 11.3 | 22.5 | 0.00 | 0.00 | 0.00 | 89 | 1010.8 |
| 20260505035544 | 7 | 188 | 11.3 | 20.9 | 0.00 | 0.08 | 0.00 | 89 | 1010.9 |
| 20260505035042 | 7 | 168 | 11.3 | 24.1 | 0.00 | 0.08 | 0.00 | 89 | 1010.9 |
| 20260505034550 | 7 | 161 | 12.9 | 24.1 | 0.00 | 0.08 | 0.00 | 89 | 1010.8 |
| 20260505034042 | 7 | 163 | 11.3 | 24.1 | 0.00 | 0.08 | 0.00 | 89 | 1010.7 |
| 20260505033542 | 7 | 191 | 12.9 | 24.1 | 0.00 | 0.08 | 0.00 | 89 | 1010.7 |
| 20260505033053 | 7 | 186 | 12.9 | 20.9 | 0.00 | 0.08 | 0.00 | 89 | 1010.6 |
| 20260505032544 | 7 | 164 | 9.7 | 25.7 | 0.00 | 0.08 | 0.00 | 88 | 1010.7 |
| 20260505032047 | 7 | 184 | 11.3 | 25.7 | 0.00 | 0.08 | 0.00 | 88 | 1010.3 |
| 20260505031550 | 7 | 166 | 12.9 | 27.4 | 0.00 | 0.08 | 0.00 | 88 | 1010.4 |
| 20260505031041 | 7 | 150 | 12.9 | 32.2 | 0.00 | 0.08 | 0.00 | 88 | 1010.4 |
| 20260505030544 | 7 | 179 | 14.5 | 32.2 | 0.00 | 0.08 | 0.00 | 88 | 1010.4 |
| 20260505030104 | 7 | 158 | 11.3 | 22.5 | 0.00 | 0.08 | 0.00 | 88 | 1010.3 |
| 20260505025541 | 7 | 179 | 12.9 | 22.5 | 0.00 | 0.13 | 0.08 | 88 | 1010.2 |
| 20260505025044 | 7 | 173 | 9.7 | 20.9 | 0.00 | 0.13 | 0.08 | 87 | 1010.3 |
| 20260505024556 | 7 | 180 | 9.7 | 22.5 | 0.00 | 0.13 | 0.08 | 88 | 1010.3 |
| 20260505024041 | 7 | 180 | 11.3 | 22.5 | 0.00 | 0.13 | 0.08 | 88 | 1010.2 |
| 20260505023545 | 7 | 180 | 11.3 | 24.1 | 0.00 | 0.13 | 0.08 | 88 | 1010.1 |
| 20260505023053 | 7 | 181 | 12.9 | 24.1 | 0.00 | 0.13 | 0.08 | 88 | 1010.0 |
| 20260505022542 | 7 | 198 | 11.3 | 22.5 | 0.00 | 0.13 | 0.08 | 88 | 1010.2 |
| 20260505022045 | 7 | 173 | 11.3 | 24.1 | 0.00 | 0.13 | 0.08 | 88 | 1010.1 |
| 20260505021558 | 7 | 200 | 12.9 | 24.1 | 0.00 | 0.13 | 0.08 | 88 | 1010.1 |
| 20260505021044 | 7 | 181 | 12.9 | 25.7 | 0.00 | 0.13 | 0.08 | 88 | 1010.0 |
| 20260505020544 | 7 | 149 | 12.9 | 25.7 | 0.00 | 0.13 | 0.08 | 88 | 1010.0 |
| 20260505015542 | 7 | 195 | 11.3 | 24.1 | 0.00 | 0.28 | 0.08 | 88 | 1009.9 |
| 20260505015049 | 7 | 190 | 9.7 | 20.9 | 0.00 | 0.28 | 0.08 | 88 | 1009.9 |
| 20260505014556 | 7 | 178 | 11.3 | 20.9 | 0.00 | 0.28 | 0.08 | 88 | 1009.8 |
| 20260505014045 | 7 | 178 | 11.3 | 20.9 | 0.00 | 0.28 | 0.08 | 88 | 1009.8 |
| 20260505013545 | 7 | 198 | 11.3 | 20.9 | 0.00 | 0.28 | 0.08 | 88 | 1009.8 |
| 20260505013054 | 7 | 172 | 9.7 | 20.9 | 0.00 | 0.28 | 0.08 | 89 | 1009.6 |
| 20260505012544 | 7 | 197 | 9.7 | 19.3 | 0.00 | 0.28 | 0.08 | 89 | 1009.6 |
| 20260505012046 | 7 | 196 | 9.7 | 19.3 | 0.00 | 0.28 | 0.08 | 89 | 1009.4 |
| 20260505011551 | 7 | 195 | 8.0 | 22.5 | 0.00 | 0.28 | 0.08 | 89 | 1009.5 |
| 20260505011043 | 7 | 196 | 11.3 | 22.5 | 0.00 | 0.28 | 0.08 | 88 | 1009.5 |
| 20260505010544 | 7 | 184 | 12.9 | 25.7 | 0.00 | 0.28 | 0.08 | 89 | 1009.4 |
| 20260505010107 | 7 | 177 | 12.9 | 25.7 | 0.00 | 0.28 | 0.08 | 89 | 1009.3 |
| 20260505005545 | 7 | 201 | 14.5 | 25.7 | 0.00 | 0.79 | 0.08 | 89 | 1009.3 |
| 20260505005043 | 7 | 193 | 14.5 | 24.1 | 0.00 | 0.79 | 0.08 | 89 | 1009.1 |
| 20260505004552 | 7 | 196 | 12.9 | 22.5 | 0.00 | 0.79 | 0.08 | 89 | 1009.1 |
| 20260505004041 | 7 | 200 | 14.5 | 25.7 | 0.00 | 0.79 | 0.08 | 89 | 1009.1 |
| 20260505003545 | 7 | 194 | 12.9 | 25.7 | 0.00 | 0.79 | 0.08 | 88 | 1008.9 |
| 20260505003053 | 7 | 190 | 14.5 | 24.1 | 0.00 | 0.79 | 0.08 | 88 | 1008.9 |
| 20260505002546 | 7 | 208 | 16.1 | 24.1 | 0.00 | 0.79 | 0.08 | 89 | 1008.9 |
| 20260505002046 | 7 | 180 | 12.9 | 22.5 | 0.00 | 0.79 | 0.08 | 88 | 1008.8 |
| 20260505001553 | 7 | 209 | 16.1 | 22.5 | 0.00 | 0.79 | 0.08 | 89 | 1008.9 |
| 20260505001047 | 7 | 217 | 11.3 | 25.7 | 0.00 | 0.79 | 0.08 | 89 | 1008.8 |
| 20260505000545 | 7 | 214 | 12.9 | 25.7 | 0.00 | 0.79 | 0.08 | 88 | 1008.8 |
| 20260505000100 | 7 | 205 | 14.5 | 22.5 | 0.00 | 0.79 | 0.08 | 88 | 1008.8 |
| 20260504235547 | 7 | 192 | 12.9 | 22.5 | 0.00 | 1.30 | 0.08 | 88 | 1008.7 |
| 20260504235042 | 7 | 206 | 11.3 | 22.5 | 0.00 | 1.30 | 0.08 | 88 | 1008.5 |
| 20260504234553 | 7 | 207 | 12.9 | 24.1 | 0.00 | 1.30 | 0.08 | 88 | 1008.5 |
| 20260504234045 | 7 | 204 | 12.9 | 24.1 | 0.00 | 1.30 | 0.08 | 88 | 1008.4 |
| 20260504233543 | 7 | 223 | 12.9 | 20.9 | 0.00 | 1.30 | 0.08 | 87 | 1008.4 |
| 20260504233057 | 7 | 181 | 14.5 | 24.1 | 0.00 | 1.30 | 0.08 | 87 | 1008.1 |
| 20260504232544 | 7 | 198 | 12.9 | 25.7 | 0.00 | 1.30 | 0.08 | 87 | 1008.0 |
| 20260504232044 | 7 | 206 | 14.5 | 25.7 | 0.00 | 1.30 | 0.08 | 87 | 1008.0 |
| 20260504231556 | 7 | 197 | 11.3 | 20.9 | 0.00 | 1.30 | 0.08 | 88 | 1008.1 |
| 20260504231045 | 7 | 209 | 12.9 | 22.5 | 0.00 | 1.30 | 0.08 | 87 | 1008.0 |
| 20260504230545 | 7 | 223 | 12.9 | 22.5 | 0.00 | 1.30 | 0.08 | 87 | 1007.9 |
| 20260504230110 | 7 | 223 | 12.9 | 22.5 | 0.00 | 1.30 | 0.08 | 87 | 1007.8 |
| 20260504225548 | 7 | 209 | 12.9 | 22.5 | 0.00 | 1.78 | 0.08 | 87 | 1007.6 |
| 20260504225047 | 7 | 213 | 14.5 | 25.7 | 0.00 | 1.78 | 0.08 | 87 | 1007.6 |
| 20260504224607 | 7 | 215 | 16.1 | 27.4 | 0.00 | 1.78 | 0.08 | 87 | 1007.5 |
| 20260504224045 | 7 | 215 | 16.1 | 27.4 | 0.00 | 1.78 | 0.08 | 87 | 1007.4 |
| 20260504223544 | 7 | 189 | 14.5 | 24.1 | 0.00 | 1.78 | 0.08 | 86 | 1007.2 |
| 20260504223100 | 7 | 181 | 12.9 | 25.7 | 0.00 | 1.78 | 0.08 | 85 | 1007.1 |
| 20260504222544 | 8 | 217 | 14.5 | 25.7 | 0.00 | 1.78 | 0.08 | 84 | 1007.2 |
| 20260504222043 | 8 | 184 | 16.1 | 32.2 | 0.00 | 1.78 | 0.08 | 85 | 1006.9 |
| 20260504221549 | 8 | 213 | 12.9 | 32.2 | 0.00 | 1.78 | 0.08 | 85 | 1007.0 |
| 20260504221043 | 8 | 182 | 11.3 | 25.7 | 0.00 | 1.78 | 0.08 | 86 | 1006.8 |
| 20260504220541 | 8 | 182 | 12.9 | 25.7 | 0.00 | 1.78 | 0.08 | 85 | 1006.7 |
| 20260504220056 | 8 | 173 | 14.5 | 29.0 | 0.00 | 1.78 | 0.08 | 85 | 1006.7 |
| 20260504215544 | 8 | 192 | 14.5 | 30.6 | 0.00 | 1.88 | 0.08 | 85 | 1006.6 |
| 20260504215044 | 8 | 173 | 17.7 | 30.6 | 0.00 | 1.88 | 0.08 | 84 | 1006.7 |
| 20260504214551 | 8 | 160 | 16.1 | 32.2 | 0.00 | 1.88 | 0.08 | 83 | 1006.9 |
| 20260504214045 | 8 | 184 | 12.9 | 32.2 | 0.00 | 1.88 | 0.08 | 84 | 1006.7 |
| 20260504213545 | 8 | 196 | 16.1 | 30.6 | 0.00 | 1.88 | 0.08 | 83 | 1006.9 |
| 20260504213048 | 9 | 199 | 16.1 | 35.4 | 0.00 | 1.88 | 0.08 | 82 | 1006.8 |
| 20260504212545 | 9 | 155 | 16.1 | 35.4 | 0.00 | 1.88 | 0.08 | 81 | 1006.9 |
| 20260504212045 | 10 | 170 | 12.9 | 29.0 | 0.00 | 1.88 | 0.08 | 82 | 1006.8 |
| 20260504211557 | 9 | 169 | 16.1 | 29.0 | 0.00 | 1.88 | 0.08 | 83 | 1006.8 |
| 20260504211043 | 9 | 207 | 12.9 | 27.4 | 0.00 | 1.88 | 0.08 | 84 | 1006.8 |
| 20260504210543 | 9 | 182 | 14.5 | 25.7 | 0.00 | 1.88 | 0.08 | 84 | 1006.9 |
| 20260504210101 | 8 | 159 | 12.9 | 25.7 | 0.00 | 1.88 | 0.08 | 86 | 1006.9 |
| 20260504205544 | 8 | 176 | 12.9 | 27.4 | 0.00 | 1.88 | 0.08 | 86 | 1007.0 |
| 20260504205041 | 8 | 180 | 14.5 | 27.4 | 0.00 | 1.88 | 0.08 | 86 | 1007.2 |
| 20260504204554 | 8 | 185 | 12.9 | 25.7 | 0.00 | 1.88 | 0.08 | 86 | 1007.2 |
| 20260504204041 | 8 | 173 | 12.9 | 30.6 | 0.00 | 1.88 | 0.08 | 86 | 1007.2 |
| 20260504203541 | 8 | 180 | 12.9 | 30.6 | 0.00 | 1.88 | 0.08 | 86 | 1007.3 |
| 20260504203048 | 8 | 186 | 12.9 | 25.7 | 0.00 | 1.88 | 0.08 | 86 | 1007.3 |
| 20260504202541 | 8 | 163 | 11.3 | 24.1 | 0.00 | 1.88 | 0.08 | 86 | 1007.3 |
| 20260504202041 | 7 | 192 | 11.3 | 24.1 | 0.00 | 1.88 | 0.08 | 86 | 1007.3 |
| 20260504201551 | 7 | 180 | 12.9 | 24.1 | 0.00 | 1.88 | 0.08 | 86 | 1007.3 |
| 20260504201044 | 7 | 166 | 14.5 | 24.1 | 0.00 | 1.88 | 0.08 | 86 | 1007.3 |
| 20260504200542 | 8 | 184 | 12.9 | 25.7 | 0.00 | 1.88 | 0.08 | 85 | 1007.4 |
| 20260504200101 | 8 | 183 | 12.9 | 29.0 | 0.00 | 1.88 | 0.08 | 85 | 1007.4 |
| 20260504195544 | 8 | 195 | 11.3 | 29.0 | 0.00 | 2.01 | 0.08 | 85 | 1007.5 |
| 20260504195042 | 8 | 197 | 16.1 | 29.0 | 0.00 | 2.01 | 0.08 | 85 | 1007.4 |
| 20260504194550 | 8 | 209 | 14.5 | 32.2 | 0.00 | 2.01 | 0.08 | 85 | 1007.3 |
| 20260504194041 | 8 | 201 | 14.5 | 32.2 | 0.00 | 2.01 | 0.08 | 85 | 1007.4 |
| 20260504193543 | 8 | 180 | 16.1 | 30.6 | 0.00 | 2.01 | 0.08 | 84 | 1007.4 |
| 20260504193051 | 8 | 190 | 14.5 | 29.0 | 0.00 | 2.01 | 0.08 | 85 | 1007.4 |
| 20260504192545 | 8 | 219 | 16.1 | 32.2 | 0.00 | 2.01 | 0.08 | 85 | 1007.2 |
| 20260504192044 | 8 | 175 | 16.1 | 32.2 | 0.00 | 2.01 | 0.08 | 84 | 1007.3 |
| 20260504191605 | 8 | 175 | 19.3 | 40.2 | 0.00 | 2.01 | 0.08 | 81 | 1007.2 |
| 20260504191045 | 10 | 205 | 17.7 | 40.2 | 0.00 | 2.01 | 0.08 | 81 | 1007.0 |
| 20260504190547 | 10 | 163 | 22.5 | 40.2 | 0.00 | 2.01 | 0.08 | 80 | 1007.0 |
| 20260504190051 | 10 | 188 | 19.3 | 40.2 | 0.00 | 2.01 | 0.08 | 79 | 1006.9 |
| 20260504185542 | 10 | 167 | 19.3 | 40.2 | 0.00 | 2.29 | 0.08 | 80 | 1006.9 |
| 20260504185043 | 10 | 213 | 17.7 | 38.6 | 0.00 | 2.29 | 0.08 | 80 | 1006.8 |
| 20260504184552 | 10 | 177 | 20.9 | 37.0 | 0.00 | 2.29 | 0.08 | 80 | 1006.8 |
| 20260504184043 | 10 | 186 | 20.9 | 37.0 | 0.00 | 2.29 | 0.08 | 80 | 1006.8 |
| 20260504183544 | 10 | 169 | 16.1 | 37.0 | 0.00 | 2.29 | 0.08 | 80 | 1006.9 |
| 20260504183050 | 10 | 188 | 17.7 | 37.0 | 0.00 | 2.29 | 0.08 | 80 | 1007.0 |
| 20260504182541 | 10 | 163 | 20.9 | 37.0 | 0.00 | 2.29 | 0.08 | 80 | 1007.0 |
| 20260504182044 | 10 | 205 | 22.5 | 37.0 | 0.00 | 2.29 | 0.08 | 79 | 1007.1 |
| 20260504181553 | 10 | 181 | 17.7 | 40.2 | 0.00 | 2.29 | 0.08 | 81 | 1007.0 |
| 20260504181041 | 9 | 180 | 19.3 | 41.8 | 0.00 | 2.29 | 0.08 | 81 | 1006.9 |
| 20260504180542 | 9 | 207 | 20.9 | 41.8 | 0.00 | 2.29 | 0.08 | 80 | 1006.9 |
| 20260504180051 | 10 | 203 | 20.9 | 41.8 | 0.00 | 2.29 | 0.08 | 79 | 1007.0 |
| 20260504175543 | 10 | 182 | 22.5 | 38.6 | 0.00 | 2.69 | 0.08 | 79 | 1006.8 |
| 20260504175045 | 10 | 194 | 20.9 | 38.6 | 0.00 | 2.69 | 0.08 | 79 | 1006.9 |
| 20260504174555 | 10 | 144 | 17.7 | 35.4 | 0.00 | 2.69 | 0.08 | 79 | 1006.9 |
| 20260504174044 | 10 | 186 | 17.7 | 37.0 | 0.00 | 2.69 | 0.08 | 78 | 1006.8 |
| 20260504173545 | 10 | 179 | 17.7 | 37.0 | 0.00 | 2.69 | 0.08 | 78 | 1006.8 |
| 20260504173056 | 10 | 182 | 14.5 | 38.6 | 0.00 | 2.69 | 0.08 | 78 | 1007.0 |
| 20260504172548 | 10 | 190 | 17.7 | 40.2 | 0.00 | 2.69 | 0.08 | 80 | 1007.0 |
| 20260504172043 | 10 | 196 | 20.9 | 40.2 | 0.00 | 2.69 | 0.08 | 78 | 1007.1 |
| 20260504171600 | 10 | 215 | 17.7 | 32.2 | 0.00 | 2.69 | 0.08 | 79 | 1007.2 |
| 20260504171043 | 10 | 206 | 17.7 | 32.2 | 0.00 | 2.69 | 0.08 | 80 | 1007.2 |
| 20260504170544 | 10 | 198 | 19.3 | 33.8 | 0.00 | 2.69 | 0.08 | 80 | 1007.2 |
| 20260504151042 | 8 | 205 | 20.9 | 33.8 | 0.00 | 4.22 | 0.08 | 84 | 1008.2 |
| 20260504150542 | 8 | 204 | 20.9 | 30.6 | 0.00 | 4.22 | 0.08 | 84 | 1008.2 |